Regional Weather Roundup
Issued by NWS Grand Forks, ND

Home | Current Version | Previous Version | Graphics & Text | Print | Product List | Glossary On
Versions: 1 2 3 4 5 6 7 8 9 10 11 12 13 14 15 16 17 18 19 20 21 22 23 24 25 26 27 28 29 30 31 32 33 34 35 36 37 38 39 40 41 42 43 44 45 46 47 48 49 50
000
ASUS43 KFGF 310031
RWRFGF
PRAIRIE TO PINES  WEATHER ROUNDUP
NATIONAL WEATHER SERVICE EASTERN NORTH DAKOTA/GRAND FORKS ND
700 PM CDT SAT JUL 30 2016

 **SATELLITE DATA USED TO AUGMENT SKY COVER AT AUTOMATED STATIONS**
 *****  WEATHER ACROSS EASTERN NORTH DAKOTA  *****

CITY           SKY/WX    TMP DP  RH WIND       PRES   REMARKS
GRAND FORKS    MOSUNNY   81  61  50 S16G23    29.88F
6HR MIN TEMP:  78; 6HR MAX TEMP:  82; 6HR PCP: TRACE;

GRAND FRKS AFB MOSUNNY   80  62  54 S18       29.88F
DEVILS LAKE    MOSUNNY   78  62  57 S17G26    29.87R
6HR MIN TEMP:  68; 6HR MAX TEMP:  79; 6HR PCP:  0.31;

FARGO          SUNNY     80  59  48 SE15G23   29.91F
WAHPETON ARPT  CLEAR     77  54  44 SE10      29.94S
$$

 ***** WEATHER ACROSS CENTRAL AND WESTERN NORTH DAKOTA  *****

CITY           SKY/WX    TMP DP  RH WIND       PRES   REMARKS
BISMARCK       SUNNY     85  65  51 SE10      29.80F
6HR MIN TEMP:  77; 6HR MAX TEMP:  87;

MINOT          SUNNY     87  60  40 CALM      29.80F
6HR MIN TEMP:  81; 6HR MAX TEMP:  89;

JAMESTOWN      MOSUNNY   78  62  57 S10       29.87F
6HR MIN TEMP:  75; 6HR MAX TEMP:  81;

MINOT AFB      SUNNY     84  58  41 S7        29.79F
GARRISON         N/A     84  65  52 SE3       29.80F
WILLISTON      SUNNY     89  55  31 E16G22    29.77F
6HR MIN TEMP:  83; 6HR MAX TEMP:  90;

DICKINSON      SUNNY     86  53  32 NE7       29.79F
6HR MIN TEMP:  80; 6HR MAX TEMP:  87;

HETTINGER      SUNNY     92  53  26 SE7       29.80F
6HR MIN TEMP:  85; 6HR MAX TEMP:  95;

$$

 *****  OTHER AIRPORT OBSERVATIONS IN OUR AREA  *****

CITY           SKY/WX    TMP DP  RH WIND       PRES   REMARKS
WALHALLA       FAIR      77  73  88 SE9       29.86S
GRAFTON AIRPOR FAIR      77  64  65 S14       29.89S
VALLEY CITY AR FAIR      77  63  61 SE10G18   29.91F
CANDO          CLOUDY    75  66  73 S15       29.88R
CAVALIER APRT  FAIR      77  64  65 S15G22    29.86S
GWINNER        FAIR      79  63  57 SE16      29.91S
SHEYENNE NWR     N/A     78  60  52 SE12      29.95S
ROLLA          FAIR      73  66  78 SE10G16   29.87S
 ***** THE ABOVE OBSERVATIONS ARE NON NWS ARE NOT QUALITY
       CONTROLLED AND MAY MIS-REPORT RAIN FOR SNOW...
$$

  *****  WEATHER ACROSS NORTHERN MINNESOTA  *****

CITY           SKY/WX    TMP DP  RH WIND       PRES   REMARKS
FLAG ISLAND    SUNNY     77  63  61 S7        29.92R
WARROAD        MOSUNNY   73  66  78 S3        29.94S
ROSEAU         MOSUNNY   75  68  78 SE6       29.92S
HALLOCK        PTSUNNY   77  63  61 S9        29.87F
THF RVR FALLS  CLOUDY    76  64  66 S9        29.94F
6HR MIN TEMP:  75; 6HR MAX TEMP:  80;

BAUDETTE       SUNNY     76  58  53 S10       29.95F
6HR MIN TEMP:  71; 6HR MAX TEMP:  80; 6HR PCP:  0.06;

WASKISH        SUNNY     75  59  57 S5        29.98R
CROOKSTON      CLOUDY    79  63  57 S13       29.92S
STEPHEN NDAWN    N/A     77  64  65 S6          N/A
GREENBUSH NDAW   N/A     79  61  53 S10         N/A
$$
  *****  WEATHER ACROSS CENTRAL AND WEST MINNESOTA  *****

CITY           SKY/WX    TMP DP  RH WIND       PRES   REMARKS
FOSSTON        SUNNY     77  57  50 S9        29.96F
BEMIDJI        SUNNY     76  58  54 S8        29.97F
PARK RAPIDS    SUNNY     78  54  43 S7        29.98S
6HR MIN TEMP:  75; 6HR MAX TEMP:  81;

ELBOW LAKE     FAIR      75  59  58 S8        29.97S
WADENA         SUNNY     75  57  53 SE3       29.97S
DETROIT LAKES  SUNNY     77  57  50 S8        29.97F
MOORHEAD       SUNNY     79  57  47 S9G17     29.93S
FERGUS FALLS   SUNNY     75  57  53 S10       29.96S
MORRIS MN      SUNNY     79  57  47 SE7       29.95F
STAPLES        SUNNY     77  55  47 SE5       29.98S
$$
  *****  WEATHER ELSEWHERE ACROSS MINNESOTA  *****

CITY           SKY/WX    TMP DP  RH WIND       PRES   REMARKS
DULUTH         MOSUNNY   70  61  73 E7        30.03R
6HR MIN TEMP:  70; 6HR MAX TEMP:  75;

INTRNTL FALLS  SUNNY     74  61  63 W6        29.98F
6HR MIN TEMP:  68; 6HR MAX TEMP:  79; 6HR PCP:  0.01;

ELY            SUNNY     75  48  38 SW3       30.01S
CLOQUET        PTSUNNY   70  59  68 E7        30.02S
WHEATON        SUNNY     77  61  57 SE8       29.96S
BRAINERD       MOSUNNY   77  60  55 VRB5      29.98F
6HR MIN TEMP:  75; 6HR MAX TEMP:  80;

HIBBING        SUNNY     75  52  44 SE3       30.00S
6HR MIN TEMP:  72; 6HR MAX TEMP:  77;

ALEXANDRIA     SUNNY     77  55  46 SE8       29.99S
6HR MIN TEMP:  75; 6HR MAX TEMP:  79;

SAINT CLOUD    SUNNY     79  63  57 E3        29.97S
6HR MIN TEMP:  76; 6HR MAX TEMP:  81;

MINNEAPOLIS    PTSUNNY   77  62  59 S10       29.97F
6HR MIN TEMP:  75; 6HR MAX TEMP:  81; 6HR PCP: TRACE;

$$

  *****  WEATHER ACROSS SOUTH DAKOTA  *****

CITY           SKY/WX    TMP DP  RH WIND       PRES   REMARKS
SIOUX FALLS    MOSUNNY   79  58  48 SE14      29.94F
6HR MIN TEMP:  78; 6HR MAX TEMP:  81;

BROOKINGS      SUNNY     77  60  55 SE12      29.95F
WATERTOWN      SUNNY     79  59  50 S13       29.95S
6HR MIN TEMP:  77; 6HR MAX TEMP:  81;

HURON          MOSUNNY   83  60  45 SE15G22   29.88F
6HR MIN TEMP:  81; 6HR MAX TEMP:  85;

SISSETON         N/A     78  59  51 SE13      29.92S
ABERDEEN       SUNNY     82  59  45 SE13      29.87F
6HR MIN TEMP:  80; 6HR MAX TEMP:  85;

MITCHELL       MOSUNNY   81  63  54 SE14      29.90F
PIERRE         SUNNY     89  61  38 SE22      29.78F
6HR MIN TEMP:  86; 6HR MAX TEMP:  91;

MOBRIDGE         N/A     64  59  83 SE10G26   29.80S THUNDER
RAPID CITY     SUNNY     87  53  31 SE12      29.78F
6HR MIN TEMP:  80; 6HR MAX TEMP:  91; 6HR PCP:  0.01;

$$

  *****  SOME WEATHER IN NEARBY STATES *****

CITY           SKY/WX    TMP DP  RH WIND       PRES   REMARKS
GLASGOW MT     SUNNY     90  54  29 SE12      29.68F
6HR MIN TEMP:  83; 6HR MAX TEMP:  90;

GREAT FALLS MT SUNNY     94  29  10 SW18      29.70F
6HR MIN TEMP:  88; 6HR MAX TEMP:  97;

CHEYENNE WY    PTSUNNY   84  49  29 S10G21    30.04S
6HR MIN TEMP:  77; 6HR MAX TEMP:  87;

SCOTTSBLUFF NE SUNNY     88  61  40 E15G23    29.88F
6HR MIN TEMP:  80; 6HR MAX TEMP:  91;

OMAHA NE       MOSUNNY   81  64  56 SE13      29.95S
6HR MIN TEMP:  75; 6HR MAX TEMP:  82;

DES MOINES IA  MOSUNNY   80  65  59 S6        29.95F
6HR MIN TEMP:  77; 6HR MAX TEMP:  83;

DAVENPORT IA   MOSUNNY   77  67  71 NE5       29.97S
6HR MIN TEMP:  76; 6HR MAX TEMP:  82; 6HR PCP: TRACE;

CHICAGO IL     PTSUNNY   73  63  70 NE12      29.99R
6HR MIN TEMP:  72; 6HR MAX TEMP:  78;

EAU CLAIRE WI  MOSUNNY   78  62  57 SE8       29.99S
6HR MIN TEMP:  76; 6HR MAX TEMP:  82;

LA CROSSE WI   SUNNY     80  63  55 E6        29.97F
6HR MIN TEMP:  77; 6HR MAX TEMP:  82; 6HR PCP: TRACE;

$$

  *****  SOME NATIONAL WEATHER *****

CITY           SKY/WX    TMP DP  RH WIND       PRES   REMARKS
LA GUARDIA NY  LGT RAIN  77  72  84 S6        30.03R
6HR MIN TEMP:  77; 6HR MAX TEMP:  84; 6HR PCP:  0.13;

RALEIGH NC     MOCLDY    85  75  72 CALM      29.95R HX  93
6HR MIN TEMP:  81; 6HR MAX TEMP:  95; 6HR PCP:  0.02;

ATLANTA GA     CLOUDY    78  72  81 SW8       30.01S
6HR MIN TEMP:  74; 6HR MAX TEMP:  86; 6HR PCP: TRACE;

NEW ORLEANS LA PTSUNNY   88  74  63 S9        29.99R HX  96
6HR MIN TEMP:  87; 6HR MAX TEMP:  96;

OKLAHOMA CITY  PTSUNNY   89  76  65 E10       29.89F HX 100
6HR MIN TEMP:  85; 6HR MAX TEMP:  91;

ALBUQUERQUE NM PTSUNNY   91  43  18 SW8       30.01F
6HR MIN TEMP:  82; 6HR MAX TEMP:  93;

SALT LAKE CITY MOSUNNY   95  40  14 CALM      29.88F HX  91
6HR MIN TEMP:  87; 6HR MAX TEMP: 100; 6HR PCP: TRACE;

LOS ANGELES CA MOSUNNY   75  65  70 W13       29.84S
6HR MIN TEMP:  75; 6HR MAX TEMP:  78;

BOISE ID       SUNNY    C1F1C2F2C3F3C4F4C5F5C6F6C7F7C8F8C9F9CaFaCbFbCcFcCd!



USA.gov is the U.S. government's official web portal to all federal, state and local government web resources and services.